Home > Weather > Farmington > Past weeks

Flag for USA Past Weather in Farmington, New Mexico, USA — Yesterday and Last 2 Weeks

Now
72 °F

Thunderstorms. Partly sunny.


Feels Like: 77 °F
Forecast: 58 / 77 °F
Wind: 21 mph from Southwest

Location: Four Corners Regional Airport

Current Time: Aug 23, 2016 at 3:06:50 PM

Latest Report: Aug 23, 2016 at 1:53 PM


Visibility: 10 mi

Pressure: 30.02 "Hg (24.90 "Hg at 1617m altitude)

Humidity: 38%

Dew Point: 45 °F

Location of FarmingtonLocation

Past Weather in Farmington — Graph

°F

Farmington Temperature Yesterday

Maximum temperature yesterday: 78 °F (at 5:53 PM)
Minimum temperature yesterday: 59 °F (at 1:53 AM)
Average temperature yesterday: 68 °F

High & Low Weather Summary for the Past Weeks

 TemperatureHumidityPressure
High91 °F (Aug 9, 3:53 PM)81% (Aug 22, 1:53 AM)30.17 "Hg (Aug 22, 1:53 AM)
Low54 °F (Aug 13, 6:53 AM)7% (Aug 12, 2:53 PM)29.79 "Hg (Aug 8, 7:53 PM)
Average73 °F37%29.97 "Hg
* Reported Aug 8 1:53 PM — Aug 23 1:53 PM, Farmington, Weather by CustomWeather, © 2016

Note: Actual official high and low records may vary slightly from our data, if they occured in-between our weather recording intervals... More about our weather records

Advertising

Farmington Weather History for the Previous 24 Hours

Scroll right to see more
 ConditionsComfort  
Time TempWeatherWind HumidityBarometerVisibility
1:53 PM
Tue, Aug 23
72 °FThunderstorms. Partly sunny.21 mph38%30.02 "Hg10 mi
12:53 PM76 °FScattered clouds.8 mph32%30.00 "Hg10 mi
11:53 AM74 °FScattered clouds.3 mph38%30.04 "Hg10 mi
10:53 AM69 °FSunny.6 mph49%30.06 "Hg10 mi
9:53 AM63 °FPassing clouds.8 mph63%30.06 "Hg10 mi
8:53 AM61 °FPartly sunny.9 mph67%30.06 "Hg10 mi
7:53 AM58 °FPartly sunny.6 mph72%30.06 "Hg10 mi
6:53 AM57 °FPassing clouds.3 mph74%30.03 "Hg10 mi
5:53 AM56 °FPassing clouds.7 mph77%30.01 "Hg10 mi
4:53 AM57 °FClear.7 mph74%30.00 "Hg10 mi
3:53 AM58 °FClear.9 mph75%29.99 "Hg10 mi
2:53 AM58 °FClear.7 mph72%30.00 "Hg10 mi
1:53 AM61 °FClear.8 mph65%29.99 "Hg10 mi
12:53 AM63 °FClear.8 mph56%29.99 "Hg10 mi
11:53 PM
Mon, Aug 22
63 °FPassing clouds.6 mph56%29.99 "Hg10 mi
10:53 PM67 °FPassing clouds.No wind45%29.98 "Hg10 mi
9:53 PM68 °FClear.8 mph44%29.98 "Hg10 mi
8:53 PM71 °FPassing clouds.6 mph38%29.96 "Hg10 mi
7:53 PM73 °FSunny.8 mph34%29.94 "Hg10 mi
6:53 PM76 °FSunny.10 mph30%29.92 "Hg10 mi
5:53 PM78 °FSunny.13 mph27%29.92 "Hg10 mi
4:53 PM77 °FSunny.9 mph31%29.93 "Hg10 mi
3:53 PM77 °FPassing clouds.9 mph33%29.94 "Hg10 mi
Weather by CustomWeather, © 2016

See weather overviewHow to use our weather pages